Theta_e
315 315 314 315 314 314 314 313 313 313 313 312 312 312 310 311 311 313 315 315 312 306 310 311 309 313 314 316 316 317 318 317 317 317 319 320 321 322 323 325 327 332 330 330 352
314 313 314 313 314 313 313 313 312 312 312 312 311 311 311 310 312 314 313 312 308 305 312 309 309 311 314 315 316 316 315 316 317 317 318 318 319 320 322 324 327 330 328 343 351
312 313 313 312 312 311 312 311 312 312 312 311 311 310 310 311 315 315 314 315 308 306 312 311 309 311 313 315 316 316 316 317 316 316 316 317 317 318 319 320 325 328 329 333 352
311 312 312 312 312 310 311 311 311 311 311 310 310 310 310 313 319 317 314 316 305 313 311 311 310 310 311 313 315 314 315 315 316 316 316 316 317 317 318 319 321 326 327 327 333
311 312 312 311 311 311 310 310 310 310 310 310 310 309 312 316 316 313 310 306 316 313 312 313 313 312 312 312 313 314 314 314 314 315 315 315 315 316 317 318 319 321 324 326 328
311 310 311 311 311 310 310 310 310 309 309 309 309 309 313 317 314 312 317 315 315 313 313 314 313 313 313 312 313 314 313 313 314 314 314 314 315 315 315 316 317 318 320 323 327
311 311 310 311 311 310 310 310 309 309 309 310 309 311 313 317 315 319 317 317 317 313 314 313 311 312 313 314 313 314 315 315 316 316 315 315 314 315 315 316 316 317 318 323 325
310 310 310 310 310 309 309 309 308 309 311 310 309 312 316 314 314 318 321 321 318 315 312 311 310 312 314 317 318 318 318 317 317 318 317 315 314 315 316 316 316 317 317 322 323
310 309 309 310 309 309 308 308 308 312 309 309 312 313 319 312 312 313 318 317 316 311 311 309 310 313 315 317 319 318 318 317 318 319 318 316 317 317 316 315 316 317 318 321 323
310 309 309 308 307 308 307 307 310 312 311 312 312 314 315 315 315 314 314 316 314 312 311 310 311 314 316 318 318 319 318 318 319 320 319 318 318 319 318 317 317 317 318 323 326
309 309 309 308 306 306 307 309 315 315 312 318 319 318 316 316 316 315 314 315 314 313 312 311 313 316 317 318 318 319 319 320 320 320 320 321 320 320 319 318 318 318 320 324 326
307 307 307 308 307 306 308 312 316 315 319 318 318 317 317 317 320 317 315 316 314 313 314 313 315 316 317 318 319 319 320 320 320 320 320 321 321 321 319 319 319 320 323 324 325
306 305 307 307 306 309 310 312 313 314 320 319 319 319 319 317 320 318 316 316 314 314 315 316 316 316 317 318 319 319 319 320 320 320 320 321 321 321 321 320 321 323 324 324 324
305 305 307 307 308 309 308 309 313 314 322 318 319 320 319 318 321 319 316 317 317 317 318 318 318 317 317 318 319 319 318 319 319 320 322 322 322 321 321 322 321 323 323 323 323
304 306 306 306 307 308 308 311 313 316 320 320 321 319 319 320 320 322 317 317 316 317 318 318 318 318 318 318 318 319 319 319 319 320 322 322 321 323 322 322 322 323 322 322 323
304 303 305 306 307 307 307 308 313 323 322 318 324 323 322 320 320 321 319 317 316 317 318 318 317 317 317 317 318 318 319 320 320 320 323 321 322 321 322 322 323 323 324 324 325
303 303 305 306 308 308 309 311 317 318 315 318 324 324 323 321 320 321 320 318 316 318 319 317 317 317 317 318 318 319 321 322 321 321 322 322 322 321 323 323 323 324 325 325 326
302 304 308 307 308 307 312 315 315 312 316 319 318 321 324 321 320 319 319 318 316 318 319 319 318 317 317 318 319 320 321 322 321 322 321 323 322 322 324 324 325 325 327 328 329
304 307 307 309 310 308 312 315 314 313 313 318 321 323 325 323 320 319 319 317 317 318 319 319 319 317 317 319 319 321 321 321 323 323 323 323 322 323 324 325 325 327 328 328 328
305 308 308 310 310 310 312 311 310 312 312 319 321 321 323 325 325 322 320 319 318 318 319 320 321 318 317 319 320 321 321 323 322 324 324 320 322 322 324 324 326 327 328 327 325
306 309 311 311 310 313 316 312 311 310 312 318 319 320 324 325 324 324 322 320 319 319 319 320 322 323 323 322 321 322 323 323 324 324 328 325 323 324 324 325 327 327 327 325 324
307 310 309 310 316 317 317 316 312 314 314 317 318 318 321 324 323 326 324 321 322 320 320 320 322 325 322 323 323 323 322 324 325 326 324 324 324 324 324 325 326 326 325 324 323
308 308 308 312 317 317 317 316 316 318 317 319 318 319 320 322 323 320 325 321 322 320 321 322 324 326 326 324 323 324 324 324 326 327 329 331 325 323 323 324 325 324 322 322 321
309 309 309 316 314 313 314 315 318 317 317 318 320 320 321 323 323 325 323 322 323 323 326 324 326 325 326 325 325 324 323 323 324 325 324 324 323 324 323 324 322 321 321 319 318
309 309 309 313 312 311 313 314 316 318 318 319 320 322 322 323 324 324 320 320 322 323 324 326 328 327 325 325 325 325 325 324 325 324 325 324 322 322 323 323 322 321 320 319 318
308 310 306 308 310 311 311 314 314 314 315 316 319 321 322 322 320 322 321 321 323 322 324 325 328 326 326 325 324 324 323 323 323 322 324 323 323 321 321 322 321 321 320 319 318
305 305 305 308 310 311 312 312 313 313 316 317 318 318 320 319 316 316 317 320 322 323 325 325 327 329 327 323 322 323 321 321 321 322 322 323 321 320 321 321 321 320 318 318 316
Wind_Speed
17 17 17 17 16 16 15 15 15 15 13 13 15 17 16 17 18 17 20 11 10 13 10 10 16 15 12 10 10 11 10 15 20 16 14 8 12 11 6 10 12 2 8 7 7
18 18 17 17 17 17 16 15 15 14 15 15 14 13 15 16 19 25 24 19 16 20 13 17 16 18 12 13 9 14 14 18 14 9 8 12 14 13 10 12 12 10 2 3 11
19 18 17 18 18 18 18 17 16 15 15 15 15 13 11 11 12 6 7 14 20 22 14 12 14 17 15 11 15 12 17 12 7 12 13 16 17 11 18 19 14 9 1 0 10
18 18 17 18 18 18 18 19 18 17 17 16 16 13 9 6 6 3 11 12 20 21 15 13 15 16 15 13 15 11 15 13 11 9 11 16 15 17 17 19 18 6 6 9 6
19 19 18 17 18 18 19 19 19 19 18 18 16 9 5 9 11 5 3 20 19 18 19 15 14 15 15 15 9 15 15 11 14 15 15 17 19 18 17 15 18 18 15 11 9
19 19 20 19 19 20 20 20 21 22 22 19 13 7 9 14 1 7 11 18 16 19 17 15 11 12 10 10 15 8 13 13 13 16 17 18 21 20 19 13 21 20 21 18 15
22 22 23 23 22 23 23 22 23 24 21 16 11 11 11 17 3 7 16 18 16 19 13 15 6 13 8 8 6 8 11 15 16 17 17 14 20 25 20 17 18 22 19 18 18
23 25 26 24 24 24 24 26 25 17 15 10 11 11 9 7 14 8 15 13 12 13 11 15 11 13 12 4 9 12 9 12 8 14 14 14 17 19 21 21 21 24 19 18 14
24 25 25 26 25 25 25 25 23 8 4 12 9 10 7 7 12 22 18 13 17 12 12 12 15 11 10 13 11 10 11 12 6 9 8 13 16 17 16 19 21 20 20 19 15
25 26 26 26 26 26 27 27 9 1 6 7 3 6 10 10 12 23 24 16 14 14 12 12 10 10 12 12 13 12 13 9 9 5 6 14 21 19 11 18 20 20 21 19 16
25 27 28 28 29 28 28 8 4 6 10 12 9 7 1 7 16 20 29 24 15 18 14 17 13 17 19 17 10 4 6 10 10 6 10 14 17 19 13 13 17 19 18 19 21
28 29 31 30 33 32 7 5 8 9 12 23 24 23 17 6 12 18 32 15 17 18 16 12 19 18 12 13 12 11 12 14 12 7 5 11 14 13 10 14 14 18 18 17 17
36 36 32 33 33 7 5 13 12 13 9 17 22 19 17 20 14 23 28 21 22 23 22 19 11 16 14 12 13 14 15 13 13 8 13 12 16 13 11 13 17 19 18 16 18
33 34 28 28 14 10 19 7 10 6 7 12 7 8 17 13 17 22 34 25 16 23 21 20 14 10 16 15 14 14 14 15 16 13 9 7 11 11 9 13 16 19 17 17 19
31 29 26 20 20 8 6 3 5 4 7 7 7 6 11 20 8 26 33 26 21 17 20 18 17 19 15 16 15 14 12 14 17 15 14 14 9 4 5 8 17 13 15 16 15
37 37 28 19 17 22 17 13 9 7 12 5 7 11 14 21 13 22 23 25 21 19 19 21 12 16 21 18 16 10 8 10 13 13 13 16 8 8 5 2 6 10 10 6 4
41 44 36 21 8 4 9 6 8 11 3 11 5 9 17 15 18 20 27 27 20 22 19 19 20 14 12 14 14 13 11 9 11 13 12 4 8 11 7 5 3 10 9 7 6
43 39 18 14 11 17 5 10 18 13 26 7 8 10 15 18 19 21 25 23 25 22 13 16 17 22 16 18 17 17 15 12 14 13 13 11 8 6 6 0 1 4 10 11 11
39 22 13 4 4 12 8 14 20 22 17 11 9 14 9 12 15 21 23 24 26 23 17 17 21 13 21 17 19 12 13 16 17 4 8 9 8 4 6 5 7 10 12 14 14
27 24 9 8 7 14 9 22 23 24 22 9 16 6 11 15 7 17 23 22 23 25 19 9 13 13 19 16 12 15 12 9 10 14 15 15 10 6 12 9 10 13 15 15 14
17 7 8 4 12 6 10 16 18 23 26 19 18 15 2 5 8 10 15 9 23 26 23 14 8 11 13 17 18 9 12 10 7 10 9 12 7 6 2 7 12 13 15 15 14
8 6 7 4 4 5 9 12 13 17 16 23 18 18 15 10 6 7 20 15 7 22 27 23 10 11 18 6 5 8 18 17 9 13 10 10 5 7 3 6 10 13 13 13 12
6 9 3 6 5 5 13 16 12 15 17 8 17 10 13 16 7 10 13 6 3 13 24 15 10 13 11 8 4 11 10 9 5 4 12 10 9 4 3 7 10 12 11 11 11
5 5 3 4 5 8 13 13 13 7 14 15 12 11 6 7 10 12 11 5 6 3 8 19 8 14 11 1 0 14 9 12 13 10 12 14 9 7 8 10 9 11 11 12 9
4 4 6 6 11 16 14 14 13 9 4 4 4 13 10 2 9 6 8 5 2 6 2 6 10 7 5 5 4 7 12 15 15 15 15 14 7 7 9 9 12 12 11 11 9
4 4 6 7 14 16 12 12 10 8 5 3 4 12 12 8 9 2 1 11 5 1 4 3 7 10 13 14 13 15 16 10 11 9 8 9 9 3 1 5 8 9 9 9 9
7 10 3 7 8 13 10 10 15 13 1 7 1 6 6 8 8 8 3 12 12 15 11 10 11 14 11 9 9 13 16 15 14 12 11 13 11 8 6 9 8 8 8 7 6
Wind_Direction
343 341 337 335 333 332 329 327 326 325 322 320 317 316 322 313 304 285 255 244 212 206 164 159 173 185 196 199 215 233 234 237 237 227 245 243 228 248 257 256 251 282 285 346 149
338 336 333 329 327 324 322 318 316 315 314 317 313 309 315 312 300 275 255 229 224 176 175 174 181 182 195 205 201 210 226 239 253 276 248 250 234 241 230 237 236 234 226 270 173
335 332 329 327 325 323 318 313 310 306 304 306 310 305 310 320 284 255 302 236 210 181 190 196 181 188 210 207 208 218 245 235 239 242 258 258 255 247 253 246 245 247 167 241 207
330 329 328 326 325 322 318 315 310 305 304 303 304 300 297 283 280 5 338 184 181 175 180 181 182 196 210 206 212 239 228 248 242 247 245 251 260 254 239 258 246 209 277 294 225
332 331 329 326 324 323 322 316 310 306 299 296 294 280 267 231 248 277 309 150 161 181 185 182 191 206 215 212 209 231 246 230 247 254 254 262 259 261 253 257 262 264 271 270 253
329 327 325 324 322 321 320 315 313 307 298 289 274 228 226 247 173 194 162 171 183 192 203 204 210 210 234 213 209 187 239 242 234 241 245 252 259 256 246 239 256 254 256 258 248
329 327 326 323 321 322 320 317 314 309 297 274 253 198 232 237 202 207 191 190 195 204 218 213 220 194 177 187 212 223 238 228 229 234 235 244 253 257 257 245 252 252 248 251 252
330 328 325 323 322 322 319 319 317 309 304 232 204 204 250 219 225 205 171 178 196 201 222 204 211 217 229 104 192 219 230 243 215 204 220 214 258 246 240 230 232 246 234 242 247
332 329 326 324 323 321 320 317 317 317 323 161 178 218 254 177 209 197 184 169 164 171 185 179 196 215 187 210 204 202 242 209 216 195 224 203 258 259 239 230 235 245 231 233 228
332 331 328 327 325 323 321 318 286 236 142 176 272 229 234 219 180 181 189 162 158 159 151 176 198 203 215 207 215 199 215 217 239 161 225 224 248 270 235 229 230 233 225 223 239
332 331 329 327 327 323 321 318 206 199 218 215 195 252 179 157 145 172 173 173 174 180 182 185 193 203 202 214 255 235 233 254 257 269 257 266 258 266 249 232 231 226 205 219 226
334 330 328 325 324 324 295 242 327 339 287 227 249 236 263 240 184 168 168 172 172 186 179 175 217 203 215 204 227 227 240 250 258 265 290 282 271 266 240 226 225 213 216 205 221
336 335 327 326 327 311 267 267 286 307 272 277 237 233 222 219 216 171 186 191 188 195 191 200 210 210 207 204 220 229 243 251 259 289 283 267 258 240 222 212 211 227 228 218 239
325 326 324 327 316 321 294 268 309 232 276 268 192 244 203 204 225 186 193 193 195 203 195 225 178 187 202 214 216 235 232 248 267 264 272 194 278 186 191 213 218 217 213 225 234
328 326 319 320 291 274 321 274 343 226 279 69 155 144 170 194 185 199 191 201 208 202 204 208 210 210 206 207 211 250 263 255 249 249 259 227 244 140 174 220 210 221 229 223 213
329 326 319 309 267 262 272 282 269 230 248 254 163 188 173 208 206 173 186 207 221 214 210 229 191 218 223 221 232 250 228 239 245 243 236 240 238 226 169 274 176 193 201 207 207
326 322 311 275 251 288 220 214 218 236 202 249 215 193 206 189 194 175 187 196 199 203 205 214 220 215 225 204 201 209 230 218 215 221 237 199 214 273 114 123 76 151 143 159 152
325 322 311 279 257 232 240 221 237 228 223 235 296 259 235 196 206 188 189 196 209 204 198 208 207 212 199 219 207 207 221 237 215 220 220 155 221 234 117 51 109 116 130 137 148
328 320 306 292 258 199 213 220 229 240 244 228 259 245 197 284 229 194 197 205 198 203 213 204 223 183 209 205 219 203 219 247 273 312 273 183 196 194 159 158 155 146 146 145 144
323 311 291 301 201 187 219 241 250 248 259 221 253 278 241 191 260 250 200 203 201 206 210 194 212 194 191 215 213 250 226 206 229 246 228 241 221 268 178 181 162 160 155 148 134
316 307 29 118 159 211 243 247 252 250 267 248 252 254 188 161 210 247 223 188 208 196 206 211 244 170 168 201 196 185 211 234 254 224 244 254 232 61 43 169 173 164 155 151 154
308 296 142 191 253 225 259 288 293 276 251 243 250 269 263 190 168 264 257 194 295 199 200 209 221 195 198 96 318 246 217 200 217 211 237 252 257 101 95 161 173 157 157 159 148
295 295 276 241 279 335 320 309 293 288 281 273 261 273 273 226 203 199 295 31 340 203 196 172 206 206 202 191 188 224 207 239 262 280 220 227 248 75 124 177 185 163 148 144 132
290 306 272 224 308 316 324 311 321 261 257 273 270 269 224 213 198 180 188 327 2 189 14 188 170 211 212 123 165 213 224 219 227 232 238 246 241 152 150 169 164 155 153 135 138
262 272 341 308 324 320 306 295 311 321 265 291 282 270 200 114 211 173 153 285 292 11 94 202 187 197 191 254 250 271 272 234 235 248 253 252 223 256 173 187 169 158 157 148 144
299 334 341 294 301 300 299 309 326 348 293 260 311 293 189 187 164 159 91 174 220 214 11 322 167 168 192 210 211 218 236 225 220 238 239 253 249 227 236 241 163 177 169 165 142
324 303 280 294 310 308 314 327 321 318 342 13 82 344 116 103 107 120 203 267 169 157 171 189 165 175 170 184 202 235 236 227 241 233 249 244 243 247 182 228 188 168 173 153 137